Andalusia, AL

12:39 PM CDT on May 26, 2017 (GMT -0500)
Andalusia

Weather History for K79J - March, 2014

Change the Weather History Date:

Sunday, March 9, 2014

  Actual Average (KCEW) Record (KCEW)
Temperature  
Mean Temperature 65 °F -  
Max Temperature 77 °F 70 °F 84 °F (1951)
Min Temperature 53 °F 44 °F 28 °F (2008)
Growing Degree Days 15 (Base 50)    
Moisture  
Dew Point 48 °F    
Average Humidity 62    
Maximum Humidity 86    
Minimum Humidity 33    
Precipitation  
Precipitation 0.00 in - - ()
Sea Level Pressure  
Sea Level Pressure 30.16 in    
Wind  
Wind Speed 1 mph (NNW)    
Max Wind Speed 7 mph    
Max Gust Speed -    
Visibility 10 miles    
Events Rain    
Averages and records for this station are not official NWS values.
T = Trace of Precipitation, MM = Missing Value Source: NWS Daily Summary

Daily Weather History Graph

Daily Weather History Graph

Search for Another Location

Airport or City:

Trip Planner

Search our weather history database for the weather conditions in past years. The results will help you decide how hot, cold, wet, or windy it might be!

Date:

Astronomy

Mar. 09, 2014 Rise Set
Actual Time 7:02 AM CDT 6:49 PM CDT
Civil Twilight 6:38 AM CDT 7:13 PM CDT
Nautical Twilight 6:10 AM CDT 7:41 PM CDT
Astronomical Twilight 5:42 AM CDT 8:10 PM CDT
Moon 12:57 PM CDT (3/9) 3:12 AM CDT (3/9)
Length of Visible Light 12h 35m
Length of Day
11h 46m
First Quarter, 61% of the Moon is Illuminated
Mar 9
First Quarter
Mar 16
Full
Mar 23
Last Quarter
Mar 30
New
Apr 7
First Quarter

Hourly Weather History & Observations

Time (CDT) Temp. Dew Point Humidity Pressure Visibility Wind Dir Wind Speed Gust Speed Precip Events Conditions
12:56 AM 53.1 °F 48.0 °F 83% 30.17 in 10.0 mi Calm Calm - N/A   Clear
1:56 AM 53.1 °F 48.9 °F 86% 30.16 in 10.0 mi Calm Calm - N/A   Partly Cloudy
3:56 AM 53.1 °F 48.9 °F 86% 30.14 in 9.0 mi Calm Calm - 0.00 in   Clear
4:56 AM 53.1 °F 48.0 °F 83% 30.16 in 10.0 mi Calm Calm - N/A   Scattered Clouds
5:56 AM 53.1 °F 48.0 °F 83% 30.18 in 10.0 mi Calm Calm - N/A   Clear
6:56 AM 54.0 °F 48.9 °F 83% 30.20 in 10.0 mi Calm Calm - 0.00 in Rain Light Rain
7:56 AM 55.0 °F 50.0 °F 83% 30.21 in 7.0 mi Calm Calm - N/A   Clear
8:56 AM 59.0 °F 52.0 °F 78% 30.22 in 10.0 mi NNW 3.5 mph - N/A   Clear
9:56 AM 64.9 °F 53.1 °F 65% 30.21 in 10.0 mi North 5.8 mph - N/A   Clear
10:56 AM 71.1 °F 50.0 °F 47% 30.20 in 10.0 mi NE 4.6 mph - N/A   Clear
11:56 AM 73.0 °F 48.0 °F 41% 30.20 in 10.0 mi Calm Calm - N/A   Clear
12:56 PM 75.0 °F 46.9 °F 37% 30.18 in 10.0 mi Calm Calm - N/A   Mostly Cloudy
1:56 PM 77.0 °F 46.0 °F 33% 30.16 in 10.0 mi Variable 6.9 mph - N/A   Partly Cloudy
2:56 PM 75.0 °F 46.0 °F 36% 30.14 in 10.0 mi NNW 6.9 mph - N/A   Clear
3:56 PM 77.0 °F 46.0 °F 33% 30.12 in 10.0 mi NNW 6.9 mph - N/A   Partly Cloudy
4:56 PM 75.9 °F 46.0 °F 35% 30.11 in 10.0 mi NNW 4.6 mph - N/A   Clear
5:56 PM 75.9 °F 46.0 °F 35% 30.10 in 10.0 mi North 4.6 mph - N/A   Clear
6:56 PM 69.1 °F 48.0 °F 47% 30.10 in 10.0 mi Calm Calm - N/A   Clear
7:56 PM 64.9 °F 48.0 °F 54% 30.12 in 10.0 mi Calm Calm - N/A   Clear
8:56 PM 62.1 °F 50.0 °F 65% 30.14 in 10.0 mi Calm Calm - N/A   Clear
9:56 PM 59.0 °F 50.0 °F 72% 30.15 in 9.0 mi Calm Calm - N/A   Clear
10:56 PM 57.9 °F 50.0 °F 75% 30.16 in 10.0 mi Calm Calm - N/A   Clear
11:56 PM 55.9 °F 48.9 °F 77% 30.14 in 10.0 mi Calm Calm - N/A   Clear
12:56 AM 55.0 °F 48.0 °F 77% 30.13 in 10.0 mi WSW 3.5 mph - N/A   Clear